Location: Emporia
(38.4040°N, 96.1810°W)
Time: 19:23:08
(UTC-05:00)

ISS - Visible Passes

Search period start: 20 August 2014 00:00
Search period end: 30 August 2014 00:00
Orbit: 413 x 419 km, 51.6° (Epoch: 20 August)

Date Brightness Start Highest point End Pass type
(mag) Time Alt. Az. Time Alt. Az. Time Alt. Az.
20 Aug -1.6 20:55:17 10° NNW 20:58:05 24° NNE 21:00:42 11° E visible
20 Aug -1.3 22:31:45 10° WNW 22:33:36 27° W 22:33:36 27° W visible
21 Aug -3.3 21:43:08 10° NW 21:46:29 78° SW 21:47:00 59° SSE visible
22 Aug -3.0 20:54:39 10° NW 20:57:57 57° NE 21:00:29 16° ESE visible
22 Aug -0.4 22:32:37 10° W 22:33:23 12° WSW 22:33:23 12° WSW visible
23 Aug -1.5 21:43:13 10° WNW 21:45:58 24° SW 21:46:55 21° SSW visible
24 Aug -2.4 20:54:20 10° WNW 20:57:32 44° SW 21:00:32 11° SSE visible
26 Aug -0.6 20:54:52 10° W 20:56:49 15° SW 20:58:46 10° SSW visible
